Weather History for KMWM - January, 2014

Change the Weather History Date:

Saturday, January 18, 2014

  Actual Average Record
Temperature  
Mean Temperature 22 °F -  
Max Temperature 33 °F 23 °F 47 °F (1964)
Min Temperature 12 °F 4 °F -28 °F (1970)
Degree Days  
Heating Degree Days 42    
Moisture  
Dew Point 17 °F    
Average Humidity 87    
Maximum Humidity 100    
Minimum Humidity 59    
Precipitation  
Precipitation 0.00 in - - ()
Sea Level Pressure  
Sea Level Pressure 29.71 in    
Wind  
Wind Speed 18 mph (West)    
Max Wind Speed 31 mph    
Max Gust Speed 36 mph    
Visibility 6 miles    
Events Snow    
Averages and records for this station are not official NWS values.
T = Trace of Precipitation, MM = Missing Value Source: NWS Daily Summary

Daily Weather History Graph

Daily Weather History Graph

Search for Another Location

Airport or City:

Trip Planner

Search our weather history database for the weather conditions in past years. The results will help you decide how hot, cold, wet, or windy it might be!

Date:

Astronomy

Jan. 18, 2014 Rise Set
Actual Time 7:49 AM CST 5:12 PM CST
Civil Twilight 7:18 AM CST 5:44 PM CST
Nautical Twilight 6:42 AM CST 6:19 PM CST
Astronomical Twilight 6:08 AM CST 6:53 PM CST
Moon 8:02 PM CST (1/18) 8:43 AM CST (1/18)
Length of Visible Light 10h 25m
Length of Day
9h 22m
Waning Gibbous, 94% of the Moon is Illuminated
Jan 18
Waning Gibbous
Jan 23
Last Quarter
Jan 30
New
Feb 6
First Quarter
Feb 14
Full

Hourly Weather History & Observations

Time (CST) Temp. Windchill Dew Point Humidity Pressure Visibility Wind Dir Wind Speed Gust Speed Precip Events Conditions
12:13 AM 21.2 °F 7.3 °F 12.2 °F 68% 29.63 in 10.0 mi South 16.1 mph - N/A Snow Light Snow
12:33 AM 21.2 °F 7.8 °F 12.2 °F 68% 29.61 in 10.0 mi South 15.0 mph - N/A   Overcast
12:52 AM 23.0 °F 8.7 °F 12.2 °F 63% 29.56 in 10.0 mi South 18.4 mph 21.9 mph N/A   Overcast
1:13 AM 24.8 °F 10.7 °F 12.2 °F 59% 29.53 in 10.0 mi South 19.6 mph 25.3 mph N/A   Overcast
1:33 AM 24.8 °F 11.5 °F 14.0 °F 64% 29.52 in 10.0 mi South 17.3 mph 23.0 mph N/A   Overcast
1:52 AM 24.8 °F 11.1 °F 14.0 °F 64% 29.51 in 10.0 mi South 18.4 mph 23.0 mph N/A   Overcast
2:13 AM 24.8 °F 11.5 °F 15.8 °F 69% 29.50 in 10.0 mi SSW 17.3 mph 24.2 mph N/A   Overcast
2:32 AM 24.8 °F 11.9 °F 15.8 °F 69% 29.51 in 10.0 mi SSW 16.1 mph 24.2 mph N/A   Overcast
2:52 AM 26.6 °F 13.1 °F 17.6 °F 69% 29.48 in 10.0 mi SSW 19.6 mph 25.3 mph N/A   Overcast
3:13 AM 26.6 °F 14.3 °F 19.4 °F 74% 29.47 in 3.0 mi SW 16.1 mph 24.2 mph N/A Snow Light Snow
3:32 AM 28.4 °F 15.8 °F 21.2 °F 74% 29.46 in 10.0 mi SW 18.4 mph 23.0 mph N/A   Overcast
3:52 AM 26.6 °F 14.7 °F 24.8 °F 93% 29.45 in 3.0 mi WSW 15.0 mph - N/A Snow Light Snow
4:13 AM 28.4 °F 18.0 °F 24.8 °F 86% 29.44 in 10.0 mi West 12.7 mph - N/A   Overcast
4:32 AM 30.2 °F 18.5 °F 26.6 °F 86% 29.43 in 2.5 mi West 17.3 mph - N/A Snow Light Snow
4:53 AM 30.2 °F 18.5 °F 28.4 °F 93% 29.42 in 2.0 mi West 17.3 mph - N/A Snow Light Snow
5:13 AM 30.2 °F 18.1 °F 30.2 °F 100% 29.42 in 2.5 mi West 18.4 mph - N/A Snow Light Snow
5:32 AM 32.0 °F 20.8 °F 30.2 °F 93% 29.42 in 2.0 mi West 17.3 mph - N/A Snow Light Snow
5:52 AM 32.0 °F 20.1 °F 32.0 °F 100% 29.42 in 3.0 mi West 19.6 mph - N/A Snow Light Snow
6:13 AM 33.8 °F 22.2 °F 32.0 °F 93% 29.42 in 10.0 mi West 20.7 mph 25.3 mph N/A Snow Light Snow
6:32 AM 33.8 °F 23.5 °F 32.0 °F 93% 29.42 in 10.0 mi West 16.1 mph - N/A   Overcast
6:53 AM 33.8 °F 23.2 °F 32.0 °F 93% 29.42 in 10.0 mi West 17.3 mph - N/A Snow Light Snow
7:12 AM 33.8 °F 22.2 °F 30.2 °F 87% 29.42 in 10.0 mi WNW 20.7 mph 26.5 mph N/A   Overcast
7:32 AM 33.8 °F 21.6 °F 32.0 °F 93% 29.42 in 4.0 mi WNW 23.0 mph - N/A Snow Light Snow
7:53 AM 33.8 °F 20.3 °F 32.0 °F 93% 29.43 in 2.5 mi NW 28.8 mph 34.5 mph N/A Snow Light Snow
8:12 AM 30.2 °F 16.5 °F 30.2 °F 100% 29.45 in 7.0 mi NNW 24.2 mph 28.8 mph N/A Snow Light Snow
8:32 AM 30.2 °F 15.7 °F 28.4 °F 93% 29.47 in 3.0 mi NW 27.6 mph 33.4 mph N/A   Overcast
8:53 AM 30.2 °F 15.7 °F 28.4 °F 93% 29.49 in 1.2 mi NW 27.6 mph 32.2 mph N/A Snow Light Snow
9:12 AM 28.4 °F 13.0 °F 28.4 °F 100% 29.52 in 0.5 mi NNW 28.8 mph 35.7 mph N/A   Overcast
9:33 AM 26.6 °F 11.1 °F 24.8 °F 93% 29.55 in 0.5 mi NNW 26.5 mph 34.5 mph N/A   Overcast
9:52 AM 21.2 °F 3.9 °F 19.4 °F 93% 29.59 in 1.0 mi North 26.5 mph 29.9 mph N/A Snow Light Snow
10:12 AM 19.4 °F 2.1 °F 17.6 °F 93% 29.63 in 0.8 mi North 24.2 mph 28.8 mph N/A Snow Light Snow
10:33 AM 17.6 °F -0.6 °F 15.8 °F 93% 29.67 in 0.8 mi North 25.3 mph 33.4 mph N/A   Overcast
10:52 AM 17.6 °F -1.6 °F 15.8 °F 93% 29.70 in 0.8 mi North 28.8 mph 34.5 mph N/A Snow Light Snow
11:12 AM 17.6 °F -1.9 °F 15.8 °F 93% 29.73 in 0.8 mi North 29.9 mph 35.7 mph N/A Snow Light Snow
11:33 AM 15.8 °F -4.1 °F 14.0 °F 93% 29.76 in 0.5 mi North 28.8 mph 35.7 mph N/A Snow Light Snow
11:52 AM 15.8 °F -3.4 °F 12.2 °F 86% 29.77 in 0.5 mi North 26.5 mph - N/A Snow Light Snow
12:12 PM 15.8 °F -4.7 °F 12.2 °F 86% 29.79 in 0.2 mi North 31.1 mph - N/A Snow Light Snow
12:33 PM 15.8 °F -4.7 °F 12.2 °F 86% 29.80 in 0.5 mi North 31.1 mph - N/A Snow Light Snow
12:52 PM 15.8 °F -4.4 °F 12.2 °F 86% 29.82 in 0.5 mi NNW 29.9 mph 33.4 mph N/A Snow Light Snow
1:12 PM 15.8 °F -3.7 °F 12.2 °F 86% 29.84 in 0.8 mi NNW 27.6 mph - N/A Snow Light Snow
1:33 PM 15.8 °F -2.7 °F 12.2 °F 86% 29.85 in 0.8 mi North 24.2 mph - N/A Snow Light Snow
1:52 PM 15.8 °F -2.3 °F 12.2 °F 86% 29.85 in 1.0 mi NNW 23.0 mph - N/A Snow Light Snow
2:12 PM 15.8 °F -2.3 °F 12.2 °F 86% 29.88 in 1.8 mi NNW 23.0 mph - N/A   Overcast
2:32 PM 17.6 °F 0.9 °F 12.2 °F 79% 29.88 in 4.0 mi NNW 20.7 mph - N/A   Overcast
2:52 PM 17.6 °F 1.7 °F 14.0 °F 86% 29.89 in 7.0 mi NW 18.4 mph 23.0 mph N/A   Overcast
3:13 PM 17.6 °F 1.7 °F 12.2 °F 79% 29.92 in 4.0 mi NW 18.4 mph - N/A   Overcast
3:32 PM 15.8 °F -1.5 °F 12.2 °F 86% 29.93 in 4.0 mi NW 20.7 mph - N/A   Overcast
3:52 PM 15.8 °F -1.5 °F 12.2 °F 86% 29.95 in 5.0 mi NW 20.7 mph 24.2 mph N/A   Overcast
4:13 PM 15.8 °F -1.9 °F 12.2 °F 86% 29.95 in 7.0 mi NW 21.9 mph - N/A   Mostly Cloudy
4:32 PM 15.8 °F 0.9 °F 12.2 °F 86% 29.97 in 10.0 mi NW 15.0 mph - N/A   Scattered Clouds
4:52 PM 15.8 °F 0.3 °F 12.2 °F 86% 29.99 in 10.0 mi NW 16.1 mph - N/A   Clear
5:13 PM 15.8 °F 2.7 °F 12.2 °F 86% 29.99 in 10.0 mi WNW 11.5 mph - N/A   Clear
5:32 PM 15.8 °F 5.1 °F 12.2 °F 86% 29.97 in 10.0 mi WNW 8.1 mph - N/A   Clear
5:52 PM 14.0 °F 2.0 °F 10.4 °F 86% 29.98 in 10.0 mi WNW 9.2 mph - N/A   Clear
6:13 PM 12.2 °F 0.7 °F 10.4 °F 92% 29.95 in 10.0 mi West 8.1 mph - N/A   Clear
6:32 PM 12.2 °F -0.2 °F 10.4 °F 92% 29.94 in 10.0 mi WNW 9.2 mph - N/A   Clear
6:52 PM 12.2 °F 0.7 °F 10.4 °F 92% 29.97 in 10.0 mi West 8.1 mph - N/A   Clear
7:13 PM 12.2 °F -0.2 °F 10.4 °F 92% 29.95 in 10.0 mi West 9.2 mph - N/A   Clear
7:32 PM 12.2 °F 2.9 °F 10.4 °F 92% 29.95 in 10.0 mi WSW 5.8 mph - N/A   Clear
7:52 PM 14.0 °F 2.9 °F 10.4 °F 86% 29.94 in 10.0 mi SW 8.1 mph - N/A   Clear
8:13 PM 12.2 °F 1.7 °F 10.4 °F 92% 29.93 in 10.0 mi WSW 6.9 mph - N/A   Clear
8:32 PM 14.0 °F 2.9 °F 10.4 °F 86% 29.93 in 10.0 mi WSW 8.1 mph - N/A   Clear
8:52 PM 15.8 °F 4.2 °F 12.2 °F 86% 29.91 in 10.0 mi SW 9.2 mph - N/A   Clear
9:12 PM 14.0 °F 2.9 °F 10.4 °F 86% 29.90 in 10.0 mi SSW 8.1 mph - N/A   Scattered Clouds
9:32 PM 15.8 °F 5.1 °F 12.2 °F 86% 29.89 in 10.0 mi SSW 8.1 mph - N/A   Scattered Clouds
9:53 PM 15.8 °F 2.7 °F 14.0 °F 93% 29.86 in 10.0 mi SW 11.5 mph - N/A   Overcast
10:12 PM 17.6 °F 5.7 °F 15.8 °F 93% 29.85 in 10.0 mi SW 10.4 mph - N/A   Overcast
10:32 PM 17.6 °F 5.7 °F 15.8 °F 93% 29.83 in 10.0 mi WSW 10.4 mph - N/A   Mostly Cloudy
10:53 PM 19.4 °F 6.6 °F 17.6 °F 93% 29.82 in 10.0 mi SW 12.7 mph - N/A   Clear
11:12 PM 19.4 °F 6.6 °F 17.6 °F 93% 29.80 in 10.0 mi SW 12.7 mph 17.3 mph N/A   Clear
11:32 PM 19.4 °F 6.6 °F 17.6 °F 93% 29.80 in 10.0 mi SW 12.7 mph - N/A   Clear
11:53 PM 19.4 °F 4.5 °F 17.6 °F 93% 29.79 in 10.0 mi SW 17.3 mph - N/A   Clear